Tracking 19634 objects as of 22-May-2019
HD Live streaming from Space Station
objects crossing your sky now

JD 3

Track JD 3 now!
10-day predictions
JD 3 is classified as:


NORAD ID: 14795
Int'l Code: 1984-012F
Perigee: 375.5 km
Apogee: 1,767.0 km
Inclination: 63.3 °
Period: 106.5 minutes
Semi major axis: 7442 km
RCS: Unknown
Launch date: February 5, 1984
Source: United States (US)
Launch site: AIR FORCE WESTERN TEST RANGE (AFWTR)
aabbcc
Your satellite tracking list
Your tracking list is empty




NASA's NSSDC Master Catalog

Two Line Element Set (TLE):
1 14795U 84012F   19140.49863365  .00001134  00000-0  90007-4 0  9999
2 14795  63.2886 128.3131 0934880  76.2598 294.0609 13.52228064  1665
Source of the keplerian elements: McCants